Home   Weather   Everett   Past weeks

Flag for USA Past Weather in Everett, Washington, USA — Yesterday and Last 2 Weeks

Now
53 °F

Mostly cloudy.


Feels Like: 51 °F
Forecast: 50 / 66 °F
Wind: 7 mph from North

Location: Snohomish County Airport

Current Time: Sep 28, 2016 at 6:45:26 AM

Latest Report: Sep 28, 2016 at 5:53 AM


Visibility: 10 mi

Pressure: 30.11 "Hg

Humidity: 83%

Dew Point: 48 °F

Location of EverettLocation

Past Weather in Everett — Graph

°F

Everett Temperature Yesterday

Maximum temperature yesterday: 62 °F (at 2:53 PM)
Minimum temperature yesterday: 52 °F (at 9:53 PM)
Average temperature yesterday: 58 °F

High & Low Weather Summary for the Past Weeks

 TemperatureHumidityPressure
High75 °F (Sep 14, 3:53 PM)97% (Sep 18, 12:53 AM)30.42 "Hg (Sep 18, 12:53 AM)
Low49 °F (Sep 20, 6:53 AM)32% (Sep 14, 3:53 PM)29.85 "Hg (Sep 17, 9:53 AM)
Average58 °F74%30.10 "Hg
* Reported Sep 13 4:53 AM — Sep 28 4:53 AM, Everett, Weather by CustomWeather, © 2016

Note: Actual official high and low records may vary slightly from our data, if they occured in-between our weather recording intervals... More about our weather records

Advertising

Everett Weather History for the Previous 24 Hours

Scroll right to see more
 ConditionsComfort  
Time TempWeatherWind HumidityBarometerVisibility
4:53 AM
Wed, Sep 28
53 °FPassing clouds.6 mph80%30.12 "Hg10 mi
3:53 AM52 °FPassing clouds.5 mph80%30.12 "Hg10 mi
2:53 AM52 °FClear.No wind83%30.13 "Hg10 mi
1:53 AM51 °FClear.No wind86%30.13 "Hg10 mi
12:53 AM53 °FClear.No wind77%30.14 "Hg10 mi
11:53 PM
Tue, Sep 27
53 °FClear.5 mph77%30.14 "Hg10 mi
10:53 PM53 °FClear.6 mph77%30.14 "Hg10 mi
9:53 PM52 °FClear.5 mph80%30.15 "Hg10 mi
8:53 PM53 °FClear.3 mph74%30.15 "Hg10 mi
7:53 PM54 °FClear.3 mph69%30.15 "Hg10 mi
6:53 PM57 °FSunny.5 mph62%30.15 "Hg10 mi
5:53 PM60 °FSunny.7 mph56%30.16 "Hg10 mi
4:53 PM62 °FSunny.7 mph52%30.17 "Hg10 mi
3:53 PM62 °FSunny.8 mph54%30.18 "Hg10 mi
2:53 PM62 °FSunny.10 mph54%30.19 "Hg10 mi
1:53 PM61 °FSunny.7 mph60%30.20 "Hg10 mi
12:53 PM61 °FSunny.10 mph58%30.21 "Hg10 mi
11:53 AM60 °FSunny.8 mph60%30.21 "Hg10 mi
10:53 AM58 °FSunny.14 mph62%30.21 "Hg10 mi
9:53 AM58 °FSunny.10 mph65%30.20 "Hg10 mi
8:53 AM57 °FPassing clouds.10 mph64%30.19 "Hg10 mi
7:53 AM57 °FMore clouds than sun.10 mph69%30.18 "Hg10 mi
6:53 AM56 °FPassing clouds.8 mph81%30.17 "Hg10 mi
6:01 AM57 °FMostly cloudy.7 mph90%30.16 "Hg10 mi
Weather by CustomWeather, © 2016

See weather overviewHow to use our weather pages